Latest Coastal Weather Observations for Middle Percy Island

IDQ60701

Issued at 4:52 pm EST Wednesday 8 February 2023 (issued every 10 minutes, with the page automatically refreshed every 10 minutes)

About coastal observations | Map of coastal stations | Coastal observations for QLD | Marine services | Other Formats
Station Details ID: 200001 Name: MIDDLE PERCY ISLAND Lat: -21.66 Lon: 150.27 Height: 208.7 m
Data from the previous 72 hours. | See also: Recent months at Middle Percy Island
Date/Time
EST
Wind Sea
Height
m
Swell Vis
km
Cloud Weather Temp
°C
Press
MSL
hPa
Rain since
9am
mm
Dir  Spd
kts
Gust
kts
Height
m
Period
s
Dir
08/04:38pm SE 20 31 - - - - - - - 24.6 1004.1 2.8
08/04:30pm SE 21 30 - - - - - - - 24.4 1004.2 2.8
08/04:00pm SE 22 33 - - - - - - - 24.5 1004.1 2.8
08/03:33pm SE 20 30 - - - - - - - 24.3 1004.1 2.8
08/03:30pm SE 20 29 - - - - - - - 24.0 1004.3 2.8
08/03:00pm SE 22 33 - - - - - - Rain 23.9 1004.2 2.8
08/02:30pm SE 20 30 - - - - - - - 24.3 1004.1 2.4
08/02:14pm SE 21 35 - - - - - - - 23.9 1004.2 2.4
08/02:00pm SSE 22 29 - - - - - - - 24.2 1004.4 1.8
08/01:30pm SE 17 27 - - - - - - - 24.4 1005.2 1.6
08/01:00pm SE 22 33 - - - - - - - 24.4 1005.4 0.8
08/12:42pm SE 21 31 - - - - - - - 24.5 1005.5 0.0
08/12:30pm SE 20 29 - - - - - - - 24.7 1005.6 0.0
08/12:11pm SSE 20 32 - - - - - - - 25.5 1005.7 0.0
08/12:00pm SSE 21 30 - - - - - - - 25.5 1005.7 0.0
08/11:47am SSE 22 32 - - - - - - - 25.8 1005.8 0.0
08/11:30am SSE 22 30 - - - - - - - 25.8 1005.9 0.0
08/11:06am SSE 19 29 - - - - - - - 26.0 1006.2 0.0
08/11:00am SSE 19 27 - - - - - - - 25.9 1006.3 0.0
08/10:54am SSE 20 30 - - - - - - - 25.8 1006.3 0.0
08/10:30am SSE 21 29 - - - - - - - 25.6 1006.5 0.0
08/10:00am SSE 21 29 - - - - - - - 25.6 1006.7 0.0
08/09:35am SSE 19 29 - - - - - - - 25.7 1006.8 0.0
08/09:30am SSE 20 29 - - - - - - - 25.5 1006.8 0.0
08/09:10am SSE 19 29 - - - - - - - 25.7 1006.7 0.0
08/09:00am SSE 20 28 - - - - - - - 25.3 1006.8 2.4
08/08:43am SSE 19 29 - - - - - - - 25.5 1006.9 2.4
08/08:30am SSE 20 28 - - - - - - - 25.4 1006.9 2.4
08/08:00am SE 19 30 - - - - - - - 25.5 1006.6 2.4
08/07:32am SSE 19 30 - - - - - - - 25.5 1006.6 2.4
08/07:30am SSE 20 30 - - - - - - - 25.5 1006.6 2.4
08/07:16am SSE 19 30 - - - - - - - 25.2 1006.4 2.4
08/07:00am SSE 19 28 - - - - - - - 25.3 1006.4 2.4
08/06:30am SSE 20 28 - - - - - - - 25.3 1006.1 2.4
08/06:00am SSE 18 25 - - - - - - - 24.9 1006.1 2.4
08/05:30am SSE 18 27 - - - - - - - 24.9 1006.1 2.4
08/05:00am SSE 20 27 - - - - - - - 24.9 1005.9 2.4
08/04:46am SSE 19 30 - - - - - - - 24.9 1005.9 2.4
08/04:30am SE 18 27 - - - - - - - 24.9 1005.9 2.4
08/04:00am SSE 19 25 - - - - - - - 24.8 1005.8 2.4
08/03:47am SE 19 31 - - - - - - - 24.8 1005.8 2.4
08/03:30am SE 19 27 - - - - - - - 24.9 1006.0 2.4
08/03:03am SSE 20 32 - - - - - - - 24.9 1006.0 2.4
08/03:00am SE 20 29 - - - - - - - 24.9 1006.2 2.4
08/02:33am SSE 21 33 - - - - - - - 24.9 1006.3 2.4
08/02:30am SE 21 29 - - - - - - - 25.0 1006.4 2.4
08/02:08am SE 19 30 - - - - - - - 24.8 1006.6 2.4
08/02:00am SE 19 28 - - - - - - - 24.9 1006.6 2.4
08/01:30am SE 18 28 - - - - - - - 24.9 1007.0 2.4
08/01:03am SE 18 30 - - - - - - - 24.9 1007.2 2.4
08/01:00am SE 19 28 - - - - - - - 25.0 1007.3 2.4
08/12:33am SE 20 31 - - - - - - - 25.0 1007.7 2.4
08/12:30am SE 21 31 - - - - - - - 25.0 1007.8 2.4
08/12:00am SE 21 33 - - - - - - - 25.1 1008.2 2.4
 
Date/Time
EST
Wind Sea
Height
m
Swell Vis
km
Cloud Weather Temp
°C
Press
MSL
hPa
Rain since
9am
mm
Dir  Spd
kts
Gust
kts
Height
m
Period
s
Dir
07/11:30pm SSE 20 31 - - - - - - - 25.1 1008.5 2.4
07/11:01pm SE 20 30 - - - - - - - 25.2 1008.8 2.4
07/11:00pm SE 21 30 - - - - - - - 25.2 1008.8 2.4
07/10:30pm SSE 20 32 - - - - - - - 25.2 1008.8 2.4
07/10:19pm SE 19 30 - - - - - - - 25.2 1009.0 2.4
07/10:00pm SE 20 30 - - - - - - - 24.8 1009.2 2.4
07/09:35pm SE 19 29 - - - - - - - 25.3 1009.1 2.4
07/09:30pm SE 21 29 - - - - - - - 25.4 1009.1 2.4
07/09:00pm SE 21 29 - - - - - - - 25.4 1008.8 2.4
07/08:36pm SSE 19 30 - - - - - - - 25.3 1008.7 2.4
07/08:30pm SSE 22 31 - - - - - - - 25.4 1008.6 2.4
07/08:09pm SSE 20 31 - - - - - - - 25.4 1008.2 2.4
07/08:00pm SE 20 30 - - - - - - - 25.4 1008.2 2.4
07/07:31pm SE 21 32 - - - - - - - 25.4 1007.8 2.4
07/07:30pm SE 22 32 - - - - - - - 25.4 1007.8 2.4
07/07:11pm SE 21 31 - - - - - - - 25.4 1007.7 2.4
07/07:00pm SSE 21 28 - - - - - - - 25.4 1007.7 2.4
07/06:48pm SSE 21 31 - - - - - - - 25.5 1007.7 2.4
07/06:30pm SSE 22 29 - - - - - - - 25.5 1007.6 2.4
07/06:04pm SSE 22 33 - - - - - - - 25.4 1007.3 2.4
07/06:00pm SSE 24 33 - - - - - - - 25.4 1007.1 2.4
07/05:35pm SSE 23 34 - - - - - - - 25.3 1006.9 2.4
07/05:30pm SSE 22 30 - - - - - - - 25.4 1007.0 2.4
07/05:06pm SSE 20 32 - - - - - - - 25.3 1006.9 2.4
07/05:00pm SSE 20 29 - - - - - - - 25.2 1006.9 2.4
07/04:30pm SSE 18 25 - - - - - - - 25.1 1006.8 2.4
07/04:00pm SSE 21 30 - - - - - - - 24.4 1006.6 2.4
07/03:34pm SSE 21 31 - - - - - - - 25.0 1006.8 2.4
07/03:30pm SSE 20 27 - - - - - - - 25.1 1007.0 2.4
07/03:00pm SSE 20 26 - - - - - - Recent precip. 25.3 1007.1 2.4
07/02:39pm SSE 20 33 - - - - - - - 25.0 1007.1 2.4
07/02:30pm SSE 22 29 - - - - - - - 24.9 1007.3 2.4
07/02:00pm SSE 21 30 - - - - - - - 26.0 1007.5 2.0
07/01:56pm SSE 20 30 - - - - - - - 26.1 1007.4 2.0
07/01:30pm SSE 19 25 - - - - - - - 25.8 1007.6 2.0
07/01:00pm SSE 20 27 - - - - - - - 26.2 1007.9 2.0
07/12:30pm SSE 16 23 - - - - - - - 25.9 1008.2 2.0
07/12:00pm SE 14 21 - - - - - - Recent precip. 25.6 1008.7 1.8
07/11:47am SSE 17 27 - - - - - - - 25.3 1008.5 1.4
07/11:30am SSE 19 25 - - - - - - - 26.1 1008.8 1.0
07/11:00am SSE 19 27 - - - - - - - 25.2 1008.9 1.0
07/10:30am SSE 15 21 - - - - - - - 26.6 1009.3 0.0
07/10:00am SSE 15 22 - - - - - - - 26.5 1009.6 0.0
07/09:30am SSE 14 19 - - - - - - - 26.4 1009.6 0.0
07/09:00am SE 14 20 - - - - - - - 27.3 1009.6 29.2
07/08:30am SE 18 24 - - - - - - - 26.6 1009.3 29.2
07/08:00am SE 14 21 - - - - - - - 26.3 1009.1 29.2
07/07:30am SE 17 25 - - - - - - - 25.6 1008.8 29.2
07/07:00am SE 15 24 - - - - - - - 26.4 1008.5 26.4
07/06:30am SE 15 21 - - - - - - - 25.8 1008.4 26.4
07/06:00am SE 13 17 - - - - - - - 25.4 1008.2 26.4
07/05:30am SE 15 21 - - - - - - - 25.1 1007.9 26.4
07/05:00am ESE 12 18 - - - - - - - 25.2 1007.8 26.4
07/04:30am ESE 13 21 - - - - - - - 24.9 1007.9 26.4
07/04:00am SE 15 22 - - - - - - - 25.7 1007.9 22.2
07/03:44am SE 15 26 - - - - - - - 25.6 1007.8 22.2
07/03:30am SE 15 21 - - - - - - - 25.3 1007.8 22.2
07/03:00am SE 13 20 - - - - - - - 24.5 1007.9 22.2
07/02:46am SE 15 26 - - - - - - - 25.0 1007.9 22.2
07/02:30am ESE 12 16 - - - - - - - 25.2 1008.2 22.2
07/02:00am ESE 12 26 - - - - - - - 24.2 1008.4 22.2
07/01:54am ESE 15 26 - - - - - - - 25.2 1008.4 22.0
07/01:30am ESE 13 20 - - - - - - - 25.1 1008.4 21.8
07/01:00am SE 14 20 - - - - - - - 24.6 1008.8 21.8
07/12:30am ESE 12 19 - - - - - - - 25.1 1009.3 21.8
07/12:00am ESE 10 18 - - - - - - Rain 24.4 1009.9 10.6
 
Date/Time
EST
Wind Sea
Height
m
Swell Vis
km
Cloud Weather Temp
°C
Press
MSL
hPa
Rain since
9am
mm
Dir  Spd
kts
Gust
kts
Height
m
Period
s
Dir
06/11:30pm SE 12 16 - - - - - - - 24.7 1010.1 8.0
06/11:00pm SE 12 17 - - - - - - - 24.3 1010.2 8.0
06/10:32pm SE 18 30 - - - - - - - 24.7 1010.4 8.0
06/10:30pm SE 18 27 - - - - - - - 24.8 1010.3 8.0
06/10:00pm SE 14 20 - - - - - - - 25.4 1010.3 8.0
06/09:30pm SSE 14 19 - - - - - - - 24.9 1010.2 8.0
06/09:00pm SSE 16 24 - - - - - - Rain 25.4 1010.1 8.0
06/08:30pm SSE 14 20 - - - - - - - 25.7 1010.1 7.0
06/08:00pm SE 14 21 - - - - - - - 25.6 1010.0 7.0
06/07:30pm SE 13 19 - - - - - - - 25.3 1009.7 7.0
06/07:00pm ESE 12 17 - - - - - - - 24.6 1009.6 7.0
06/06:30pm SE 11 16 - - - - - - - 25.0 1009.3 6.6
06/06:00pm ESE 9 13 - - - - - - Rain 24.9 1009.3 6.2
06/05:30pm ESE 9 15 - - - - - - - 25.3 1009.2 5.6
06/05:00pm ESE 6 10 - - - - - - - 25.0 1009.1 4.8
06/04:30pm ESE 11 22 - - - - - - - 24.8 1009.3 2.2
06/04:00pm SSE 12 17 - - - - - - - 27.3 1009.0 1.4
06/03:30pm SSE 11 16 - - - - - - - 27.4 1009.1 1.4
06/03:00pm SE 8 11 - - - - - - Rain 26.3 1009.3 1.4
06/02:30pm SE 13 19 - - - - - - - 28.1 1009.6 0.0
06/02:00pm SE 13 17 - - - - - - - 29.1 1009.9 0.0
06/01:30pm SE 11 16 - - - - - - - 28.7 1010.2 0.0
06/01:00pm SE 12 15 - - - - - - - 28.8 1010.3 0.0
06/12:30pm SE 13 17 - - - - - - - 28.9 1010.5 0.0
06/12:00pm SE 11 17 - - - - - - - 28.5 1010.7 0.0
06/11:30am SE 14 19 - - - - - - - 28.2 1010.8 0.0
06/11:00am SE 12 19 - - - - - - - 28.2 1011.1 0.0
06/10:30am SE 12 19 - - - - - - - 28.3 1011.3 0.0
06/10:00am SE 14 20 - - - - - - - 27.3 1011.6 0.0
06/09:30am SSE 12 17 - - - - - - - 27.6 1011.6 0.0
06/09:00am SE 10 14 - - - - - - Rain 26.9 1011.6 0.2
06/08:30am SE 13 19 - - - - - - - 27.3 1011.6 0.0
06/08:00am SSE 11 17 - - - - - - - 26.6 1011.4 0.0
06/07:30am SE 10 15 - - - - - - - 26.0 1011.4 0.0
06/07:00am SE 12 17 - - - - - - - 26.5 1011.1 0.0
06/06:30am SE 10 14 - - - - - - - 25.9 1011.1 0.0
06/06:00am SE 10 15 - - - - - - - 26.2 1010.6 0.0
06/05:30am ESE 10 14 - - - - - - - 26.1 1010.0 0.0
06/05:00am ESE 10 14 - - - - - - - 26.1 1009.7 0.0
06/04:30am SE 10 15 - - - - - - - 26.0 1009.7 0.0
06/04:00am SE 8 12 - - - - - - - 26.3 1009.5 0.0
06/03:30am SE 11 16 - - - - - - - 26.1 1009.3 0.0
06/03:00am SE 10 15 - - - - - - - 26.1 1009.2 0.0
06/02:30am ESE 9 15 - - - - - - - 26.3 1009.2 0.0
06/02:00am ESE 8 13 - - - - - - - 26.2 1009.3 0.0
06/01:30am SE 10 13 - - - - - - - 26.3 1009.8 0.0
06/01:00am ESE 9 14 - - - - - - - 26.3 1010.4 0.0
06/12:30am ESE 9 13 - - - - - - - 26.4 1010.9 0.0
06/12:00am ESE 9 13 - - - - - - - 26.5 1010.8 0.0
 
Date/Time
EST
Wind Sea
Height
m
Swell Vis
km
Cloud Weather Temp
°C
Press
MSL
hPa
Rain since
9am
mm
Dir  Spd
kts
Gust
kts
Height
m
Period
s
Dir
05/11:30pm ESE 10 15 - - - - - - - 26.4 1010.9 0.0
05/11:00pm ESE 7 11 - - - - - - - 26.6 1010.8 0.0
05/10:30pm ESE 10 15 - - - - - - - 26.5 1010.8 0.0
05/10:00pm ESE 9 14 - - - - - - - 26.6 1010.6 0.0
05/09:30pm ESE 10 16 - - - - - - - 26.7 1010.6 0.0
05/09:00pm ESE 7 11 - - - - - - - 26.7 1010.4 0.0
05/08:30pm ESE 6 13 - - - - - - - 26.7 1010.1 0.0
05/08:00pm E 6 11 - - - - - - - 26.8 1009.7 0.0
05/07:30pm ESE 6 11 - - - - - - - 26.8 1009.5 0.0
05/07:00pm ESE 6 12 - - - - - - - 26.8 1009.3 0.0
05/06:30pm ESE 6 11 - - - - - - - 27.2 1009.0 0.0
05/06:00pm ESE 7 15 - - - - - - - 27.7 1008.7 0.0
05/05:30pm ESE 9 13 - - - - - - - 27.6 1008.2 0.0
05/05:00pm SE 10 15 - - - - - - - 28.3 1008.0 0.0

Other formats

Comma delimited format used in spreadsheet applications
http://www.bom.gov.au/fwo/IDQ60701/IDQ60701.94372.axf

JavaScript Object Notation format (JSON) in row-major order
http://www.bom.gov.au/fwo/IDQ60701/IDQ60701.94372.json

Data quality

Most of these data are generated automatically and are frequently updated. Quality checks on data are not normally performed. It is possible for incorrect values to appear. Refer to information at About Latest Weather Observations and please check the disclaimer before using these data.